Location: Iesi
(43.5167°N, 13.2333°E)
Time: 01:31:57
(UTC+00:00)

NOSS 3-2 (A) - Pass Details

Date: 08 August 2020
Orbit: 796 x 1412 km, 63.4° (Epoch: 16 September)

Event Time Altitude Azimuth Distance (km) Brightness Sun altitude
Exits shadow 19:36:53 - 170° (S) 2,613 5.3 -12.9°
Reaches altitude 10° 19:37:28 10° 167° (SSE) 2,428 5.1 -13.0°
Maximum altitude 19:42:04 27° 111° (ESE) 1,629 4.1 -13.6°
Drops below altitude 10° 19:47:06 10° 56° (NE) 2,684 5.6 -14.3°
Sets 19:50:11 0° 45° (NE) 3,737 6.5 -14.8°
